| time (UTC) | temp C | wind direction | speed KPH | gust KPH | rain 1hr cm | rain 24hr cm | rain mn cm | humidity % | barometer mb |
| 20260502162238 | 20 | 342 | 1.6 | 8.0 | 0.00 | 1.65 | 0.03 | 78 | 1006.8 |
| 20260502161739 | 19 | 342 | 3.2 | 6.4 | 0.00 | 1.68 | 0.03 | 80 | 1006.7 |
| 20260502161457 | 19 | 17 | 3.2 | 9.7 | 0.00 | 1.70 | 0.03 | 79 | 1006.7 |
| 20260502160735 | 19 | 52 | 3.2 | 9.7 | 0.00 | 1.73 | 0.03 | 78 | 1006.7 |
| 20260502160453 | 19 | 325 | 3.2 | 14.5 | 0.00 | 1.80 | 0.03 | 82 | 1006.7 |
| 20260502152214 | 17 | 298 | 3.2 | 11.3 | 0.00 | 2.39 | 0.03 | 89 | 1006.4 |
| 20260502151714 | 17 | 281 | 3.2 | 9.7 | 0.00 | 2.39 | 0.03 | 89 | 1006.5 |
| 20260502151212 | 17 | 333 | 3.2 | 9.7 | 0.00 | 2.39 | 0.03 | 92 | 1006.5 |
| 20260502150710 | 16 | 331 | 3.2 | 9.7 | 0.00 | 2.39 | 0.03 | 92 | 1006.4 |
| 20260502150210 | 16 | 269 | 1.6 | 9.7 | 0.00 | 2.39 | 0.03 | 91 | 1006.5 |
| 20260502130641 | 11 | 0 | 1.6 | 4.8 | 0.00 | 3.61 | 0.03 | 98 | 1005.3 |
| 20260502130140 | 11 | 0 | 0.0 | 4.8 | 0.00 | 3.63 | 0.03 | 99 | 1005.4 |
| 20260502123641 | 11 | 0 | 0.0 | 1.6 | 0.00 | 4.29 | 0.03 | 98 | 1004.9 |
| 20260502123402 | 11 | 0 | 0.0 | 1.6 | 0.00 | 4.39 | 0.03 | 98 | 1004.7 |
| 20260502122642 | 11 | 0 | 0.0 | 0.0 | 0.00 | 4.52 | 0.03 | 98 | 1004.6 |
| 20260502122138 | 11 | 0 | 0.0 | 0.0 | 0.00 | 4.62 | 0.03 | 98 | 1004.7 |
| 20260502121637 | 11 | 0 | 0.0 | 0.0 | 0.00 | 4.67 | 0.03 | 98 | 1004.7 |
| 20260502121355 | 11 | 0 | 0.0 | 0.0 | 0.00 | 4.78 | 0.03 | 98 | 1004.6 |
| 20260502120854 | 11 | 0 | 0.0 | 0.0 | 0.00 | 4.83 | 0.03 | 98 | 1004.4 |
| 20260502120136 | 11 | 0 | 0.0 | 0.0 | 0.00 | 4.90 | 0.03 | 98 | 1004.4 |
| 20260502115636 | 11 | 0 | 0.0 | 0.0 | 0.00 | 4.93 | 0.03 | 98 | 1004.4 |
| 20260502115137 | 11 | 0 | 0.0 | 0.0 | 0.00 | 5.03 | 0.03 | 98 | 1004.3 |
| 20260502114857 | 11 | 0 | 0.0 | 0.0 | 0.00 | 5.36 | 0.03 | 97 | 1004.3 |
| 20260502114136 | 11 | 0 | 0.0 | 0.0 | 0.00 | 5.44 | 0.03 | 97 | 1004.3 |
| 20260502113636 | 11 | 0 | 0.0 | 0.0 | 0.00 | 5.44 | 0.03 | 97 | 1004.2 |
| 20260502113137 | 11 | 0 | 0.0 | 0.0 | 0.00 | 5.46 | 0.03 | 97 | 1004.2 |
| 20260502112636 | 11 | 0 | 0.0 | 0.0 | 0.00 | 5.46 | 0.03 | 97 | 1004.2 |
| 20260502112137 | 11 | 0 | 0.0 | 0.0 | 0.00 | 5.49 | 0.03 | 97 | 1004.0 |
| 20260502111633 | 11 | 0 | 0.0 | 0.0 | 0.00 | 5.54 | 0.03 | 97 | 1004.0 |
| 20260502111132 | 11 | 0 | 0.0 | 0.0 | 0.00 | 5.56 | 0.03 | 97 | 1003.9 |
| 20260502110633 | 11 | 0 | 0.0 | 0.0 | 0.00 | 5.59 | 0.03 | 97 | 1003.8 |
| 20260502110132 | 11 | 0 | 0.0 | 0.0 | 0.00 | 5.66 | 0.03 | 97 | 1003.7 |
| 20260502105632 | 11 | 0 | 0.0 | 0.0 | 0.00 | 5.74 | 0.03 | 97 | 1003.7 |
| 20260502105128 | 11 | 0 | 0.0 | 0.0 | 0.00 | 5.84 | 0.03 | 97 | 1003.7 |
| 20260502104629 | 11 | 0 | 0.0 | 0.0 | 0.00 | 5.92 | 0.03 | 97 | 1003.7 |
| 20260502104128 | 11 | 0 | 0.0 | 0.0 | 0.00 | 6.02 | 0.03 | 97 | 1003.6 |
| 20260502103628 | 11 | 0 | 0.0 | 0.0 | 0.00 | 6.07 | 0.03 | 97 | 1003.6 |
| 20260502103128 | 11 | 0 | 0.0 | 0.0 | 0.00 | 6.10 | 0.03 | 97 | 1003.6 |
| 20260502102628 | 11 | 0 | 0.0 | 0.0 | 0.00 | 6.10 | 0.03 | 97 | 1003.5 |
| 20260502102128 | 11 | 0 | 0.0 | 0.0 | 0.00 | 6.10 | 0.03 | 97 | 1003.4 |
| 20260502101629 | 11 | 0 | 0.0 | 0.0 | 0.00 | 6.10 | 0.03 | 97 | 1003.4 |
| 20260502101128 | 11 | 0 | 0.0 | 0.0 | 0.00 | 6.12 | 0.03 | 97 | 1003.3 |
| 20260502100628 | 11 | 0 | 0.0 | 0.0 | 0.00 | 6.15 | 0.03 | 97 | 1003.3 |
| 20260502100353 | 11 | 0 | 0.0 | 0.0 | 0.00 | 6.17 | 0.03 | 97 | 1003.2 |
| 20260502091128 | 11 | 0 | 0.0 | 1.6 | 0.03 | 6.73 | 0.03 | 97 | 1002.4 |
| 20260502090628 | 11 | 0 | 1.6 | 1.6 | 0.03 | 6.76 | 0.03 | 97 | 1002.3 |
| 20260502090129 | 11 | 0 | 1.6 | 1.6 | 0.03 | 6.78 | 0.03 | 97 | 1002.1 |
| 20260502080110 | 12 | 0 | 0.0 | 4.8 | 0.00 | 7.37 | 0.00 | 97 | 1002.0 |
| 20260502071122 | 12 | 0 | 1.6 | 4.8 | 0.00 | 7.42 | 0.00 | 97 | 1002.1 |
| 20260502070619 | 12 | 0 | 1.6 | 3.2 | 0.00 | 7.42 | 0.00 | 97 | 1002.1 |
| 20260502070118 | 12 | 0 | 1.6 | 3.2 | 0.00 | 7.42 | 0.00 | 97 | 1002.2 |
| 20260502065846 | 12 | 0 | 1.6 | 3.2 | 0.00 | 7.42 | 0.00 | 97 | 1002.2 |
| 20260502065115 | 12 | 0 | 1.6 | 8.0 | 0.00 | 7.42 | 0.00 | 97 | 1002.2 |
| 20260502064612 | 12 | 0 | 1.6 | 8.0 | 0.00 | 7.42 | 0.00 | 97 | 1002.0 |
| 20260502064112 | 12 | 0 | 1.6 | 4.8 | 0.00 | 7.42 | 0.00 | 97 | 1002.0 |
| 20260502063611 | 12 | 0 | 1.6 | 3.2 | 0.00 | 7.42 | 0.00 | 97 | 1002.0 |
| 20260502063109 | 12 | 0 | 1.6 | 4.8 | 0.00 | 7.42 | 0.00 | 97 | 1001.9 |
| 20260502062830 | 12 | 0 | 1.6 | 6.4 | 0.00 | 7.44 | 0.00 | 97 | 1001.9 |
| 20260502062103 | 12 | 0 | 1.6 | 6.4 | 0.00 | 7.44 | 0.00 | 97 | 1002.0 |
| 20260502061603 | 12 | 0 | 3.2 | 6.4 | 0.00 | 7.44 | 0.00 | 97 | 1001.9 |
| 20260502061102 | 12 | 0 | 3.2 | 8.0 | 0.00 | 7.44 | 0.00 | 97 | 1001.9 |
| 20260502060821 | 12 | 0 | 3.2 | 8.0 | 0.00 | 7.47 | 0.00 | 97 | 1001.9 |
| 20260502060100 | 12 | 0 | 1.6 | 8.0 | 0.00 | 7.47 | 0.00 | 97 | 1001.8 |
| 20260502055556 | 12 | 0 | 1.6 | 6.4 | 0.00 | 7.47 | 0.00 | 97 | 1001.9 |
| 20260502055054 | 12 | 0 | 3.2 | 8.0 | 0.00 | 7.47 | 0.00 | 97 | 1002.0 |
| 20260502054555 | 12 | 0 | 1.6 | 8.0 | 0.00 | 7.47 | 0.00 | 97 | 1001.9 |
| 20260502054053 | 12 | 0 | 1.6 | 8.0 | 0.00 | 7.47 | 0.00 | 97 | 1001.8 |
| 20260502053551 | 12 | 0 | 1.6 | 6.4 | 0.00 | 7.47 | 0.00 | 97 | 1001.9 |
| 20260502053315 | 12 | 0 | 1.6 | 6.4 | 0.00 | 7.47 | 0.00 | 97 | 1001.9 |
| 20260502052545 | 13 | 0 | 3.2 | 8.0 | 0.00 | 7.47 | 0.00 | 97 | 1001.9 |
| 20260502052043 | 13 | 0 | 3.2 | 12.9 | 0.00 | 7.47 | 0.00 | 97 | 1001.9 |
| 20260502051809 | 13 | 0 | 3.2 | 12.9 | 0.00 | 7.47 | 0.00 | 97 | 1001.9 |
| 20260502051305 | 13 | 0 | 1.6 | 6.4 | 0.00 | 7.47 | 0.00 | 98 | 1002.0 |
| 20260502050546 | 13 | 0 | 1.6 | 6.4 | 0.00 | 7.47 | 0.00 | 97 | 1001.9 |
| 20260502050040 | 13 | 0 | 1.6 | 6.4 | 0.00 | 7.47 | 0.00 | 98 | 1001.9 |
| 20260502045538 | 13 | 0 | 1.6 | 6.4 | 0.00 | 7.47 | 7.47 | 98 | 1001.8 |
| 20260502045039 | 13 | 0 | 3.2 | 8.0 | 0.00 | 7.47 | 7.47 | 98 | 1001.7 |
| 20260502044539 | 13 | 0 | 3.2 | 8.0 | 0.00 | 7.47 | 7.47 | 98 | 1001.7 |
| 20260502044034 | 13 | 0 | 1.6 | 9.7 | 0.00 | 7.47 | 7.47 | 98 | 1001.7 |
| 20260502043534 | 13 | 0 | 3.2 | 9.7 | 0.00 | 7.47 | 7.47 | 98 | 1001.7 |
| 20260502043033 | 13 | 0 | 3.2 | 8.0 | 0.00 | 7.47 | 7.47 | 98 | 1001.6 |
| 20260502042754 | 13 | 0 | 3.2 | 6.4 | 0.00 | 7.47 | 7.47 | 98 | 1001.6 |
| 20260502042034 | 13 | 0 | 3.2 | 6.4 | 0.00 | 7.47 | 7.47 | 98 | 1001.7 |
| 20260502041534 | 13 | 0 | 3.2 | 6.4 | 0.00 | 7.47 | 7.47 | 98 | 1001.7 |
| 20260502041036 | 13 | 0 | 3.2 | 9.7 | 0.00 | 7.47 | 7.47 | 98 | 1001.7 |
| 20260502040534 | 13 | 0 | 1.6 | 9.7 | 0.00 | 7.47 | 7.47 | 98 | 1001.6 |
| 20260502040034 | 13 | 0 | 1.6 | 8.0 | 0.00 | 7.47 | 7.47 | 98 | 1001.7 |
| 20260502035751 | 13 | 0 | 1.6 | 4.8 | 0.00 | 7.47 | 7.47 | 98 | 1001.7 |
| 20260502035030 | 13 | 0 | 3.2 | 6.4 | 0.00 | 7.47 | 7.47 | 98 | 1001.8 |
| 20260502034530 | 13 | 0 | 3.2 | 6.4 | 0.00 | 7.47 | 7.47 | 98 | 1001.8 |
| 20260502034251 | 13 | 15 | 3.2 | 8.0 | 0.00 | 7.47 | 7.47 | 98 | 1001.8 |
| 20260502033530 | 13 | 0 | 3.2 | 8.0 | 0.00 | 7.47 | 7.47 | 98 | 1001.8 |
| 20260502033030 | 13 | 0 | 1.6 | 6.4 | 0.00 | 7.47 | 7.47 | 98 | 1001.7 |
| 20260502032530 | 13 | 18 | 1.6 | 4.8 | 0.00 | 7.47 | 7.47 | 98 | 1001.7 |
| 20260502032029 | 13 | 0 | 1.6 | 4.8 | 0.00 | 7.47 | 7.47 | 98 | 1001.5 |
| 20260502031531 | 13 | 15 | 1.6 | 4.8 | 0.00 | 7.47 | 7.47 | 98 | 1001.5 |
| 20260502031246 | 13 | 24 | 1.6 | 6.4 | 0.00 | 7.47 | 7.47 | 98 | 1001.4 |
| 20260502030752 | 13 | 0 | 1.6 | 6.4 | 0.00 | 7.47 | 7.47 | 98 | 1001.3 |
| 20260502030245 | 13 | 13 | 1.6 | 8.0 | 0.00 | 7.47 | 7.47 | 98 | 1001.2 |
| 20260502025526 | 13 | 0 | 1.6 | 8.0 | 0.00 | 7.47 | 7.47 | 98 | 1001.0 |
| 20260502025026 | 13 | 15 | 1.6 | 4.8 | 0.00 | 7.47 | 7.47 | 98 | 1000.8 |
| 20260502024526 | 13 | 0 | 1.6 | 14.5 | 0.00 | 7.47 | 7.47 | 98 | 1000.6 |
| 20260502024026 | 13 | 13 | 1.6 | 14.5 | 0.00 | 7.47 | 7.47 | 98 | 1000.4 |
| 20260502023526 | 13 | 0 | 3.2 | 12.9 | 0.00 | 7.47 | 7.47 | 98 | 1000.0 |
| 20260502023027 | 13 | 59 | 1.6 | 8.0 | 0.00 | 7.47 | 7.47 | 98 | 1000.0 |
| 20260502022522 | 13 | 0 | 1.6 | 6.4 | 0.00 | 7.47 | 7.47 | 98 | 1000.0 |
| 20260502022023 | 13 | 0 | 1.6 | 6.4 | 0.03 | 7.47 | 7.47 | 98 | 1000.1 |
| 20260502021521 | 13 | 14 | 1.6 | 6.4 | 0.03 | 7.47 | 7.47 | 98 | 1000.1 |
| 20260502021021 | 13 | 0 | 1.6 | 4.8 | 0.03 | 7.47 | 7.47 | 98 | 1000.0 |
| 20260502020522 | 13 | 12 | 1.6 | 4.8 | 0.03 | 7.47 | 7.47 | 98 | 1000.1 |
| 20260502020022 | 13 | 346 | 3.2 | 11.3 | 0.03 | 7.47 | 7.47 | 98 | 1000.1 |
| 20260502015521 | 13 | 18 | 3.2 | 11.3 | 0.03 | 7.47 | 7.47 | 98 | 1000.0 |
| 20260502015022 | 13 | 16 | 3.2 | 6.4 | 0.05 | 7.47 | 7.47 | 98 | 999.9 |
| 20260502014522 | 13 | 15 | 3.2 | 6.4 | 0.05 | 7.47 | 7.47 | 98 | 999.8 |
| 20260502014018 | 13 | 12 | 3.2 | 14.5 | 0.08 | 7.47 | 7.47 | 98 | 999.7 |
| 20260502013517 | 13 | 0 | 3.2 | 14.5 | 0.10 | 7.47 | 7.47 | 97 | 999.4 |
| 20260502013241 | 13 | 13 | 3.2 | 8.0 | 0.13 | 7.47 | 7.47 | 98 | 999.4 |
| 20260502012517 | 13 | 13 | 3.2 | 8.0 | 0.13 | 7.47 | 7.47 | 98 | 999.4 |
| 20260502012018 | 13 | 9 | 1.6 | 6.4 | 0.10 | 7.44 | 7.47 | 98 | 999.8 |
| 20260502012004 | 13 | 11 | 1.6 | 6.4 | 0.10 | 7.44 | 7.44 | 98 | 1000.1 |
| 20260502011017 | 13 | 12 | 1.6 | 6.4 | 0.13 | 7.44 | 7.44 | 98 | 999.9 |
| 20260502010519 | 13 | 9 | 3.2 | 8.0 | 0.15 | 7.44 | 7.44 | 98 | 999.8 |
| 20260502010019 | 14 | 336 | 3.2 | 8.0 | 0.20 | 7.44 | 7.44 | 98 | 999.5 |
| 20260502005512 | 14 | 327 | 3.2 | 9.7 | 0.20 | 7.44 | 7.44 | 98 | 999.0 |
| 20260502005010 | 14 | 0 | 3.2 | 9.7 | 0.20 | 7.42 | 7.42 | 98 | 998.5 |
| 20260502004509 | 14 | 0 | 3.2 | 14.5 | 0.25 | 7.42 | 7.42 | 97 | 998.5 |
| 20260502004011 | 14 | 0 | 3.2 | 14.5 | 0.28 | 7.39 | 7.39 | 98 | 998.4 |
| 20260502003510 | 15 | 0 | 3.2 | 8.0 | 0.28 | 7.37 | 7.37 | 97 | 998.5 |
| 20260502003009 | 15 | 0 | 1.6 | 4.8 | 0.28 | 7.34 | 7.34 | 98 | 998.8 |
| 20260502002512 | 15 | 0 | 1.6 | 3.2 | 0.28 | 7.34 | 7.34 | 98 | 999.3 |
| 20260502002009 | 15 | 0 | 1.6 | 3.2 | 0.30 | 7.34 | 7.34 | 98 | 999.3 |
| 20260502001508 | 15 | 0 | 1.6 | 3.2 | 0.30 | 7.32 | 7.34 | 98 | 999.1 |
| 20260502001004 | 15 | 0 | 0.0 | 3.2 | 0.30 | 7.32 | 7.32 | 98 | 999.0 |
| 20260502000500 | 15 | 0 | 1.6 | 3.2 | 0.30 | 7.29 | 7.29 | 98 | 998.8 |
| 20260501235957 | 15 | 0 | 1.6 | 4.8 | 0.30 | 7.24 | 7.24 | 98 | 998.5 |
| 20260501235458 | 15 | 0 | 1.6 | 4.8 | 0.38 | 7.24 | 7.24 | 98 | 998.3 |
| 20260501234959 | 15 | 0 | 1.6 | 3.2 | 0.38 | 7.21 | 7.21 | 98 | 998.4 |
| 20260501234457 | 15 | 0 | 0.0 | 3.2 | 0.33 | 7.16 | 7.16 | 98 | 998.5 |
| 20260501234217 | 15 | 0 | 1.6 | 3.2 | 0.28 | 7.11 | 7.11 | 98 | 998.6 |
| 20260501233455 | 15 | 0 | 1.6 | 3.2 | 0.25 | 7.09 | 7.09 | 98 | 998.1 |
| 20260501232953 | 15 | 0 | 1.6 | 4.8 | 0.23 | 7.06 | 7.09 | 98 | 998.3 |
| 20260501232451 | 15 | 0 | 1.6 | 4.8 | 0.20 | 7.04 | 7.04 | 98 | 998.2 |
| 20260501231947 | 15 | 0 | 1.6 | 4.8 | 0.20 | 7.04 | 7.04 | 98 | 997.4 |
| 20260501231448 | 15 | 0 | 1.6 | 4.8 | 0.18 | 7.01 | 7.01 | 98 | 997.4 |
| 20260501230943 | 15 | 0 | 1.6 | 4.8 | 0.18 | 7.01 | 7.01 | 98 | 997.1 |
| 20260501230708 | 15 | 0 | 1.6 | 4.8 | 0.15 | 6.99 | 6.99 | 98 | 997.0 |
| 20260501225944 | 15 | 0 | 1.6 | 4.8 | 0.10 | 6.93 | 6.96 | 98 | 997.5 |
| 20260501225444 | 15 | 0 | 1.6 | 4.8 | 0.05 | 6.86 | 6.88 | 98 | 997.3 |
| 20260501224941 | 15 | 0 | 3.2 | 6.4 | 0.03 | 6.83 | 6.83 | 98 | 996.7 |
| 20260501224439 | 15 | 0 | 1.6 | 6.4 | 0.08 | 6.83 | 6.83 | 98 | 997.0 |
| 20260501224200 | 15 | 0 | 1.6 | 9.7 | 0.10 | 6.83 | 6.83 | 98 | 996.4 |
| 20260501223441 | 15 | 0 | 1.6 | 9.7 | 0.15 | 6.83 | 6.83 | 98 | 995.9 |
| 20260501222938 | 15 | 0 | 3.2 | 9.7 | 0.20 | 6.83 | 6.83 | 98 | 995.5 |
| 20260501222700 | 15 | 0 | 3.2 | 9.7 | 0.25 | 6.83 | 6.83 | 98 | 995.3 |
| 20260501221936 | 16 | 0 | 3.2 | 8.0 | 0.30 | 6.83 | 6.83 | 98 | 996.0 |
| 20260501221435 | 16 | 0 | 1.6 | 6.4 | 0.36 | 6.83 | 6.83 | 98 | 996.1 |
| 20260501221152 | 16 | 0 | 1.6 | 6.4 | 0.38 | 6.83 | 6.83 | 98 | 996.2 |
| 20260501220433 | 16 | 0 | 1.6 | 9.7 | 0.41 | 6.83 | 6.83 | 98 | 996.5 |
| 20260501215935 | 16 | 0 | 1.6 | 9.7 | 0.41 | 6.83 | 6.83 | 98 | 996.7 |
| 20260501215431 | 16 | 0 | 1.6 | 6.4 | 0.41 | 6.81 | 6.81 | 98 | 996.8 |
| 20260501215153 | 16 | 0 | 1.6 | 6.4 | 0.43 | 6.81 | 6.81 | 98 | 997.6 |
| 20260501214427 | 16 | 0 | 1.6 | 6.4 | 0.41 | 6.76 | 6.78 | 98 | 997.8 |
| 20260501213925 | 16 | 0 | 1.6 | 4.8 | 0.38 | 6.73 | 6.73 | 98 | 997.4 |
| 20260501213425 | 16 | 0 | 1.6 | 4.8 | 0.33 | 6.68 | 6.71 | 98 | 997.3 |
| 20260501212925 | 16 | 0 | 1.6 | 4.8 | 0.30 | 6.63 | 6.63 | 98 | 997.1 |
| 20260501212422 | 16 | 0 | 1.6 | 3.2 | 0.25 | 6.58 | 6.58 | 98 | 997.2 |
| 20260501211921 | 16 | 0 | 1.6 | 6.4 | 0.20 | 6.53 | 6.53 | 98 | 997.2 |
| 20260501211423 | 16 | 0 | 1.6 | 6.4 | 0.18 | 6.48 | 6.48 | 98 | 997.3 |
| 20260501211142 | 16 | 0 | 1.6 | 6.4 | 0.18 | 6.45 | 6.45 | 98 | 997.0 |
| 20260501210416 | 16 | 0 | 1.6 | 4.8 | 0.20 | 6.43 | 6.43 | 98 | 996.9 |
| 20260501205915 | 16 | 0 | 1.6 | 4.8 | 0.20 | 6.43 | 6.43 | 98 | 996.1 |
| 20260501205413 | 16 | 0 | 3.2 | 4.8 | 0.20 | 6.40 | 6.40 | 98 | 995.1 |
| 20260501204911 | 16 | 0 | 1.6 | 6.4 | 0.18 | 6.38 | 6.38 | 98 | 995.7 |
| 20260501204411 | 16 | 0 | 0.0 | 6.4 | 0.20 | 6.35 | 6.35 | 98 | 996.3 |
| 20260501204133 | 16 | 0 | 1.6 | 4.8 | 0.25 | 6.35 | 6.35 | 98 | 996.4 |
| 20260501203407 | 16 | 0 | 3.2 | 16.1 | 0.28 | 6.35 | 6.35 | 98 | 996.3 |
| 20260501202907 | 16 | 0 | 3.2 | 16.1 | 0.28 | 6.32 | 6.35 | 98 | 996.1 |
| 20260501202407 | 16 | 0 | 3.2 | 14.5 | 0.28 | 6.32 | 6.32 | 98 | 995.9 |
| 20260501201908 | 16 | 0 | 3.2 | 17.7 | 0.28 | 6.32 | 6.32 | 98 | 995.4 |
| 20260501201405 | 16 | 0 | 3.2 | 17.7 | 0.23 | 6.27 | 6.30 | 98 | 995.6 |
| 20260501200906 | 16 | 0 | 1.6 | 4.8 | 0.20 | 6.25 | 6.27 | 98 | 996.2 |
| 20260501200403 | 16 | 0 | 1.6 | 4.8 | 0.20 | 6.22 | 6.25 | 98 | 996.3 |
| 20260501195903 | 16 | 0 | 1.6 | 4.8 | 0.20 | 6.22 | 6.22 | 98 | 996.3 |
| 20260501195629 | 16 | 0 | 1.6 | 6.4 | 0.18 | 6.20 | 6.20 | 98 | 996.6 |
| 20260501194900 | 16 | 0 | 1.6 | 6.4 | 0.15 | 6.17 | 6.17 | 98 | 996.9 |
| 20260501194400 | 16 | 0 | 1.6 | 6.4 | 0.10 | 6.12 | 6.15 | 98 | 996.5 |
| 20260501193900 | 17 | 0 | 1.6 | 3.2 | 0.08 | 6.10 | 6.10 | 98 | 996.4 |
| 20260501193359 | 17 | 0 | 1.6 | 6.4 | 0.05 | 6.07 | 6.07 | 98 | 996.6 |
| 20260501192859 | 17 | 0 | 1.6 | 6.4 | 0.03 | 6.05 | 6.05 | 98 | 995.9 |
| 20260501192401 | 17 | 0 | 1.6 | 4.8 | 0.03 | 6.05 | 6.05 | 98 | 995.7 |
| 20260501191902 | 17 | 0 | 1.6 | 4.8 | 0.03 | 6.05 | 6.05 | 98 | 996.6 |
| 20260501191401 | 17 | 0 | 1.6 | 3.2 | 0.03 | 6.05 | 6.05 | 98 | 996.1 |
| 20260501190859 | 17 | 0 | 1.6 | 3.2 | 0.03 | 6.05 | 6.05 | 98 | 995.9 |
| 20260501190359 | 17 | 0 | 1.6 | 4.8 | 0.00 | 6.02 | 6.05 | 98 | 995.5 |
| 20260501185901 | 17 | 0 | 1.6 | 4.8 | 0.00 | 6.02 | 6.02 | 98 | 995.4 |
| 20260501185621 | 17 | 0 | 1.6 | 4.8 | 0.03 | 6.02 | 6.02 | 98 | 994.9 |
| 20260501184901 | 17 | 0 | 1.6 | 4.8 | 0.03 | 6.02 | 6.02 | 98 | 995.3 |
| 20260501184401 | 17 | 0 | 1.6 | 4.8 | 0.03 | 6.02 | 6.02 | 98 | 995.8 |
| 20260501183901 | 17 | 0 | 1.6 | 9.7 | 0.05 | 6.02 | 6.02 | 98 | 995.9 |
| 20260501183400 | 17 | 0 | 1.6 | 9.7 | 0.05 | 6.02 | 6.02 | 98 | 995.5 |
| 20260501182859 | 17 | 0 | 3.2 | 9.7 | 0.08 | 6.02 | 6.02 | 98 | 994.9 |
| 20260501182619 | 17 | 0 | 3.2 | 9.7 | 0.08 | 6.02 | 6.02 | 98 | 994.6 |
| 20260501181859 | 17 | 0 | 3.2 | 9.7 | 0.08 | 6.02 | 6.02 | 98 | 994.5 |
| 20260501181359 | 17 | 0 | 3.2 | 9.7 | 0.10 | 6.02 | 6.02 | 98 | 993.5 |
| 20260501180900 | 17 | 0 | 3.2 | 9.7 | 0.10 | 6.02 | 6.02 | 98 | 993.8 |
| 20260501180359 | 17 | 0 | 3.2 | 6.4 | 0.13 | 6.02 | 6.02 | 98 | 994.5 |
| 20260501175900 | 17 | 0 | 3.2 | 6.4 | 0.13 | 6.02 | 6.02 | 98 | 992.8 |
| 20260501175358 | 17 | 0 | 3.2 | 8.0 | 0.10 | 5.99 | 5.99 | 98 | 994.7 |
| 20260501174859 | 17 | 0 | 3.2 | 8.0 | 0.10 | 5.99 | 5.99 | 98 | 995.4 |
| 20260501174401 | 17 | 0 | 1.6 | 4.8 | 0.10 | 5.99 | 5.99 | 99 | 995.9 |
| 20260501173854 | 17 | 0 | 1.6 | 4.8 | 0.08 | 5.97 | 5.97 | 98 | 996.2 |
| 20260501173355 | 17 | 0 | 1.6 | 4.8 | 0.10 | 5.97 | 5.97 | 98 | 996.4 |
| 20260501173112 | 17 | 0 | 1.6 | 4.8 | 0.08 | 5.94 | 5.94 | 98 | 997.1 |
| 20260501172355 | 17 | 0 | 3.2 | 12.9 | 0.10 | 5.94 | 5.94 | 98 | 997.2 |
| 20260501172120 | 17 | 0 | 3.2 | 12.9 | 0.13 | 5.94 | 5.94 | 98 | 997.3 |
| 20260501171354 | 17 | 0 | 1.6 | 4.8 | 0.10 | 5.92 | 5.92 | 98 | 996.9 |
| 20260501170855 | 17 | 0 | 1.6 | 4.8 | 0.15 | 5.92 | 5.92 | 98 | 997.4 |
| 20260501170356 | 17 | 0 | 1.6 | 4.8 | 0.18 | 5.89 | 5.89 | 98 | 997.4 |
| 20260501165852 | 17 | 0 | 1.6 | 4.8 | 0.28 | 5.89 | 5.89 | 98 | 996.8 |
| 20260501165347 | 17 | 0 | 1.6 | 8.0 | 0.38 | 5.89 | 5.89 | 98 | 996.7 |
| 20260501164849 | 17 | 0 | 1.6 | 8.0 | 0.46 | 5.89 | 5.89 | 98 | 997.1 |
| 20260501164608 | 17 | 0 | 1.6 | 8.0 | 0.53 | 5.89 | 5.89 | 98 | 997.4 |
| 20260501163846 | 17 | 0 | 1.6 | 4.8 | 0.61 | 5.89 | 5.89 | 98 | 997.6 |
| 20260501163347 | 17 | 0 | 1.6 | 4.8 | 0.69 | 5.87 | 5.87 | 98 | 997.8 |
| 20260501162848 | 17 | 0 | 1.6 | 3.2 | 0.74 | 5.87 | 5.87 | 98 | 997.9 |
| 20260501162347 | 17 | 0 | 3.2 | 6.4 | 0.74 | 5.84 | 5.87 | 98 | 998.3 |